Time,TemperatureF,DewpointF,PressureIn,WindDirection,WindDirectionDegrees,WindSpeedMPH,WindSpeedGustMPH,Humidity,HourlyPrecipIn,Conditions,Clouds,dailyrainin,SoftwareType,DateUTC
2013-03-27 00:00:00,34.3,27.2,30.27,North,0,0.0,0.0,75,0.00,,BKN060,0.00,VWS V14.01,2013-03-27 04:00:00,
2013-03-27 00:01:00,34.3,27.2,30.27,North,0,0.0,0.0,75,0.00,,BKN060,0.00,VWS V14.01,2013-03-27 04:01:00,
2013-03-27 00:03:00,34.3,27.2,30.27,North,0,0.0,0.0,75,0.00,,BKN060,0.00,VWS V14.01,2013-03-27 04:03:00,
2013-03-27 00:08:00,34.3,27.2,30.27,North,0,0.0,0.0,75,0.00,,BKN060,0.00,VWS V14.01,2013-03-27 04:08:00,
2013-03-27 00:13:00,34.2,27.0,30.27,North,0,0.0,0.0,75,0.00,,BKN060,0.00,VWS V14.01,2013-03-27 04:13:00,
2013-03-27 00:18:00,34.2,27.0,30.27,North,0,0.0,0.0,75,0.00,,BKN060,0.00,VWS V14.01,2013-03-27 04:18:00,
2013-03-27 00:24:00,34.0,26.8,30.27,North,0,0.0,0.0,75,0.00,,BKN060,0.00,VWS V14.01,2013-03-27 04:24:00,
2013-03-27 00:29:00,34.0,26.3,30.27,North,0,0.0,0.0,73,0.00,,BKN060,0.00,VWS V14.01,2013-03-27 04:29:00,
2013-03-27 00:34:00,34.0,26.8,30.27,North,0,0.0,0.0,75,0.00,,BKN060,0.00,VWS V14.01,2013-03-27 04:34:00,
2013-03-27 00:39:00,34.0,26.8,30.27,North,0,0.0,0.0,75,0.00,,BKN060,0.00,VWS V14.01,2013-03-27 04:39:00,
2013-03-27 00:44:00,33.8,27.2,30.27,North,0,0.0,0.0,76,0.00,,BKN060,0.00,VWS V14.01,2013-03-27 04:44:00,
2013-03-27 00:49:00,33.8,26.7,30.27,North,0,0.0,0.0,75,0.00,,BKN060,0.00,VWS V14.01,2013-03-27 04:49:00,
2013-03-27 00:54:00,33.8,27.2,30.27,North,0,0.0,0.0,76,0.00,,BKN060,0.00,VWS V14.01,2013-03-27 04:54:00,
2013-03-27 00:59:00,33.6,27.6,30.27,North,0,0.0,0.0,78,0.00,,BKN060,0.00,VWS V14.01,2013-03-27 04:59:00,
2013-03-27 01:04:00,33.6,27.6,30.27,North,0,0.0,0.0,78,0.00,,BKN060,0.00,VWS V14.01,2013-03-27 05:04:00,
2013-03-27 01:09:00,33.3,27.2,30.27,North,0,0.0,0.0,78,0.00,,BKN060,0.00,VWS V14.01,2013-03-27 05:09:00,
2013-03-27 01:14:00,33.1,27.6,30.27,North,0,0.0,0.0,80,0.00,,BKN060,0.00,VWS V14.01,2013-03-27 05:14:00,
2013-03-27 01:19:00,32.9,27.4,30.27,North,0,0.0,0.0,80,0.00,,BKN060,0.00,VWS V14.01,2013-03-27 05:19:00,
2013-03-27 01:25:00,32.7,27.7,30.27,North,0,0.0,0.0,82,0.00,,BKN060,0.00,VWS V14.01,2013-03-27 05:25:00,
2013-03-27 01:30:00,32.5,27.5,30.27,North,0,0.0,0.0,82,0.00,,BKN060,0.00,VWS V14.01,2013-03-27 05:30:00,
2013-03-27 01:35:00,32.4,27.4,30.27,North,0,0.0,0.0,82,0.00,,BKN065,0.00,VWS V14.01,2013-03-27 05:35:00,
2013-03-27 01:40:00,32.2,27.7,30.27,North,0,0.0,0.0,83,0.00,,BKN065,0.00,VWS V14.01,2013-03-27 05:40:00,
2013-03-27 01:45:00,32.0,27.5,30.27,North,0,0.0,0.0,83,0.00,,BKN065,0.00,VWS V14.01,2013-03-27 05:45:00,
2013-03-27 01:50:00,31.8,27.8,30.27,North,0,0.0,0.0,85,0.00,,BKN065,0.00,VWS V14.01,2013-03-27 05:50:00,
2013-03-27 01:55:00,31.6,27.7,30.27,North,0,0.0,0.0,85,0.00,,BKN065,0.00,VWS V14.01,2013-03-27 05:55:00,
2013-03-27 02:00:00,31.6,27.7,30.27,North,0,0.0,0.0,85,0.00,,BKN065,0.00,VWS V14.01,2013-03-27 06:00:00,
2013-03-27 02:06:00,31.5,27.5,30.27,North,0,0.0,0.0,85,0.00,,BKN065,0.00,VWS V14.01,2013-03-27 06:06:00,
2013-03-27 02:11:00,31.3,27.3,30.27,North,0,0.0,0.0,85,0.00,,BKN065,0.00,VWS V14.01,2013-03-27 06:11:00,
2013-03-27 02:17:00,31.1,27.6,30.27,North,0,0.0,0.0,87,0.00,,BKN065,0.00,VWS V14.01,2013-03-27 06:17:00,
2013-03-27 02:22:00,31.1,27.6,30.27,North,0,0.0,0.0,87,0.00,,BKN065,0.00,VWS V14.01,2013-03-27 06:22:00,
2013-03-27 02:27:00,31.1,27.6,30.27,North,0,0.0,0.0,87,0.00,,BKN065,0.00,VWS V14.01,2013-03-27 06:27:00,
2013-03-27 02:32:00,31.1,27.6,30.27,North,0,0.0,0.0,87,0.00,,BKN065,0.00,VWS V14.01,2013-03-27 06:32:00,
2013-03-27 02:37:00,31.1,27.6,30.27,North,0,0.0,0.0,87,0.00,,FEW065,0.00,VWS V14.01,2013-03-27 06:37:00,
2013-03-27 02:42:00,31.1,27.6,30.27,North,0,0.0,0.0,87,0.00,,FEW065,0.00,VWS V14.01,2013-03-27 06:42:00,
2013-03-27 02:47:00,31.1,27.6,30.27,North,0,0.0,0.0,87,0.00,,FEW065,0.00,VWS V14.01,2013-03-27 06:47:00,
2013-03-27 02:52:00,30.9,27.4,30.27,North,0,0.0,0.0,87,0.00,,FEW065,0.00,VWS V14.01,2013-03-27 06:52:00,
2013-03-27 02:57:00,30.6,27.1,30.27,North,0,0.0,0.0,87,0.00,,FEW065,0.00,VWS V14.01,2013-03-27 06:57:00,
2013-03-27 03:02:00,30.2,26.7,30.27,North,0,0.0,0.0,87,0.00,,FEW065,0.00,VWS V14.01,2013-03-27 07:02:00,
2013-03-27 03:07:00,30.0,27.0,30.27,North,0,0.0,0.0,88,0.00,,FEW065,0.00,VWS V14.01,2013-03-27 07:07:00,
2013-03-27 03:12:00,30.0,27.5,30.27,North,0,0.0,0.0,90,0.00,,FEW065,0.00,VWS V14.01,2013-03-27 07:12:00,
2013-03-27 03:17:00,30.0,27.9,30.27,North,0,0.0,0.0,92,0.00,,FEW065,0.00,VWS V14.01,2013-03-27 07:17:00,
2013-03-27 03:22:00,30.0,28.4,30.27,North,0,0.0,0.0,94,0.00,,FEW065,0.00,VWS V14.01,2013-03-27 07:22:00,
2013-03-27 03:27:00,30.0,28.8,30.27,North,0,0.0,0.0,95,0.00,,FEW065,0.00,VWS V14.01,2013-03-27 07:27:00,
2013-03-27 03:32:00,30.0,28.4,30.27,North,0,0.0,0.0,94,0.00,,FEW065,0.00,VWS V14.01,2013-03-27 07:32:00,
2013-03-27 03:37:00,30.0,28.4,30.27,North,0,0.0,0.0,94,0.00,,FEW065,0.00,VWS V14.01,2013-03-27 07:37:00,
2013-03-27 03:42:00,29.8,28.2,30.27,North,0,0.0,0.0,94,0.00,,FEW065,0.00,VWS V14.01,2013-03-27 07:42:00,
2013-03-27 03:47:00,29.7,27.6,30.27,North,0,0.0,0.0,92,0.00,,FEW065,0.00,VWS V14.01,2013-03-27 07:47:00,
2013-03-27 03:52:00,29.5,27.4,30.27,North,0,0.0,0.0,92,0.00,,FEW065,0.00,VWS V14.01,2013-03-27 07:52:00,
2013-03-27 03:57:00,29.1,27.0,30.27,North,0,0.0,0.0,92,0.00,,FEW065,0.00,VWS V14.01,2013-03-27 07:57:00,
2013-03-27 04:02:00,28.9,26.9,30.27,North,0,0.0,0.0,92,0.00,,FEW065,0.00,VWS V14.01,2013-03-27 08:02:00,
2013-03-27 04:08:00,28.8,26.7,30.27,North,0,0.0,0.0,92,0.00,,FEW065,0.00,VWS V14.01,2013-03-27 08:08:00,
2013-03-27 04:13:00,28.6,26.5,30.27,North,0,0.0,0.0,92,0.00,,FEW065,0.00,VWS V14.01,2013-03-27 08:13:00,
2013-03-27 04:18:00,28.6,27.0,30.27,North,0,0.0,0.0,94,0.00,,FEW065,0.00,VWS V14.01,2013-03-27 08:18:00,
2013-03-27 04:23:00,28.8,28.0,30.27,North,0,0.0,0.0,97,0.00,,FEW065,0.00,VWS V14.01,2013-03-27 08:23:00,
2013-03-27 04:28:00,28.8,28.8,30.27,North,0,0.0,0.0,100,0.00,,FEW065,0.00,VWS V14.01,2013-03-27 08:28:00,
2013-03-27 04:33:00,28.9,28.9,30.27,North,0,0.0,0.0,100,0.00,,FEW065,0.00,VWS V14.01,2013-03-27 08:33:00,
2013-03-27 04:38:00,28.9,28.9,30.27,North,0,0.0,0.0,100,0.00,,CLR,0.00,VWS V14.01,2013-03-27 08:38:00,
2013-03-27 04:43:00,28.8,28.4,30.27,North,0,0.0,0.0,99,0.00,,CLR,0.00,VWS V14.01,2013-03-27 08:43:00,
2013-03-27 04:48:00,28.6,28.2,30.27,North,0,0.0,0.0,99,0.00,,CLR,0.00,VWS V14.01,2013-03-27 08:48:00,
2013-03-27 04:53:00,28.6,28.2,30.27,North,0,0.0,0.0,99,0.00,,CLR,0.00,VWS V14.01,2013-03-27 08:53:00,
2013-03-27 04:58:00,28.4,28.4,30.27,North,0,0.0,0.0,100,0.00,,CLR,0.00,VWS V14.01,2013-03-27 08:58:00,
2013-03-27 05:03:00,28.2,27.9,30.27,North,0,0.0,0.0,99,0.00,,CLR,0.00,VWS V14.01,2013-03-27 09:03:00,
2013-03-27 05:08:00,28.0,27.7,30.27,North,0,0.0,0.0,99,0.00,,CLR,0.00,VWS V14.01,2013-03-27 09:08:00,
2013-03-27 05:13:00,27.9,27.5,30.27,North,0,0.0,0.0,99,0.00,,CLR,0.00,VWS V14.01,2013-03-27 09:13:00,
2013-03-27 05:18:00,27.9,27.5,30.27,North,0,0.0,0.0,99,0.00,,CLR,0.00,VWS V14.01,2013-03-27 09:18:00,
2013-03-27 05:23:00,27.7,27.3,30.24,North,0,0.0,0.0,99,0.00,,CLR,0.00,VWS V14.01,2013-03-27 09:23:00,
2013-03-27 05:28:00,27.7,27.3,30.24,North,0,0.0,0.0,99,0.00,,CLR,0.00,VWS V14.01,2013-03-27 09:28:00,
2013-03-27 05:33:00,27.5,27.2,30.24,North,0,0.0,0.0,99,0.00,,CLR,0.00,VWS V14.01,2013-03-27 09:33:00,
2013-03-27 05:38:00,27.3,27.0,30.27,North,0,0.0,0.0,99,0.00,,CLR,0.00,VWS V14.01,2013-03-27 09:38:00,
2013-03-27 05:43:00,27.3,27.0,30.27,North,0,0.0,0.0,99,0.00,,CLR,0.00,VWS V14.01,2013-03-27 09:43:00,
2013-03-27 05:48:00,27.3,27.0,30.27,North,0,0.0,0.0,99,0.00,,CLR,0.00,VWS V14.01,2013-03-27 09:48:00,
2013-03-27 05:53:00,27.1,26.8,30.27,North,0,0.0,0.0,99,0.00,,CLR,0.00,VWS V14.01,2013-03-27 09:53:00,
2013-03-27 05:58:00,27.1,26.8,30.27,North,0,0.0,0.0,99,0.00,,CLR,0.00,VWS V14.01,2013-03-27 09:58:00,
2013-03-27 06:03:00,27.0,26.6,30.27,North,0,0.0,0.0,99,0.00,,CLR,0.00,VWS V14.01,2013-03-27 10:03:00,
2013-03-27 06:08:00,27.0,26.6,30.27,North,0,0.0,0.0,99,0.00,,CLR,0.00,VWS V14.01,2013-03-27 10:08:00,
2013-03-27 06:13:00,26.8,26.4,30.27,North,0,0.0,0.0,99,0.00,,CLR,0.00,VWS V14.01,2013-03-27 10:13:00,
2013-03-27 06:18:00,26.8,26.4,30.27,North,0,0.0,0.0,99,0.00,,CLR,0.00,VWS V14.01,2013-03-27 10:18:00,
2013-03-27 06:23:00,26.6,26.6,30.24,North,0,0.0,0.0,100,0.00,,CLR,0.00,VWS V14.01,2013-03-27 10:23:00,
2013-03-27 06:28:00,26.4,26.4,30.24,North,0,0.0,0.0,100,0.00,,CLR,0.00,VWS V14.01,2013-03-27 10:28:00,
2013-03-27 06:33:00,26.2,26.2,30.24,North,0,0.0,0.0,100,0.00,,CLR,0.00,VWS V14.01,2013-03-27 10:33:00,
2013-03-27 06:38:00,26.2,26.2,30.27,North,0,0.0,0.0,100,0.00,,BKN050,0.00,VWS V14.01,2013-03-27 10:38:00,
2013-03-27 06:44:00,26.1,26.1,30.27,North,0,0.0,0.0,100,0.00,,BKN050,0.00,VWS V14.01,2013-03-27 10:44:00,
2013-03-27 06:49:00,26.1,26.1,30.27,North,0,0.0,0.0,100,0.00,,BKN050,0.00,VWS V14.01,2013-03-27 10:49:00,
2013-03-27 06:54:00,25.9,25.9,30.27,North,0,0.0,0.0,100,0.00,,BKN050,0.00,VWS V14.01,2013-03-27 10:54:00,
2013-03-27 06:59:00,25.9,25.9,30.27,North,0,0.0,0.0,100,0.00,,BKN050,0.00,VWS V14.01,2013-03-27 10:59:00,
2013-03-27 07:04:00,25.7,25.7,30.27,North,0,0.0,0.0,100,0.00,,BKN050,0.00,VWS V14.01,2013-03-27 11:04:00,
2013-03-27 07:09:00,25.5,25.5,30.27,North,0,0.0,0.0,100,0.00,,BKN050,0.00,VWS V14.01,2013-03-27 11:09:00,
2013-03-27 07:14:00,25.5,25.5,30.27,North,0,0.0,0.0,100,0.00,,BKN050,0.00,VWS V14.01,2013-03-27 11:14:00,
2013-03-27 07:19:00,25.5,25.5,30.27,North,0,0.0,0.0,100,0.00,,BKN050,0.00,VWS V14.01,2013-03-27 11:19:00,
2013-03-27 07:24:00,25.3,25.3,30.27,North,0,0.0,0.0,100,0.00,,BKN050,0.00,VWS V14.01,2013-03-27 11:24:00,
2013-03-27 07:30:00,25.3,25.3,30.27,North,0,0.0,0.0,100,0.00,,BKN050,0.00,VWS V14.01,2013-03-27 11:30:00,
2013-03-27 07:35:00,25.3,25.3,30.27,North,0,0.0,0.0,100,0.00,,BKN050,0.00,VWS V14.01,2013-03-27 11:35:00,
2013-03-27 07:40:00,25.3,25.3,30.27,North,0,0.0,0.0,100,0.00,,FEW050,0.00,VWS V14.01,2013-03-27 11:40:00,
2013-03-27 07:45:00,25.2,25.2,30.27,North,0,0.0,0.0,100,0.00,,FEW050,0.00,VWS V14.01,2013-03-27 11:45:00,
2013-03-27 07:50:00,25.3,25.3,30.27,North,0,0.0,0.0,100,0.00,,FEW050,0.00,VWS V14.01,2013-03-27 11:50:00,
2013-03-27 07:55:00,25.3,25.3,30.27,North,0,0.0,0.0,100,0.00,,FEW050,0.00,VWS V14.01,2013-03-27 11:55:00,
2013-03-27 08:01:00,25.5,25.5,30.27,North,0,0.0,0.0,100,0.00,,FEW050,0.00,VWS V14.01,2013-03-27 12:01:00,
2013-03-27 08:06:00,26.1,26.1,30.27,North,0,0.0,0.0,100,0.00,,FEW050,0.00,VWS V14.01,2013-03-27 12:06:00,
2013-03-27 08:11:00,26.6,26.6,30.30,North,0,0.0,0.0,100,0.00,,FEW050,0.00,VWS V14.01,2013-03-27 12:11:00,
2013-03-27 08:16:00,27.3,27.3,30.30,North,0,0.0,0.0,100,0.00,,FEW050,0.00,VWS V14.01,2013-03-27 12:16:00,
2013-03-27 08:22:00,28.0,28.0,30.30,North,0,0.0,0.0,100,0.00,,FEW050,0.00,VWS V14.01,2013-03-27 12:22:00,
2013-03-27 08:27:00,28.9,28.9,30.30,North,0,0.0,0.0,100,0.00,,FEW050,0.00,VWS V14.01,2013-03-27 12:27:00,
2013-03-27 08:32:00,29.5,29.5,30.30,North,0,0.0,0.0,100,0.00,,FEW050,0.00,VWS V14.01,2013-03-27 12:32:00,
2013-03-27 08:37:00,30.0,30.0,30.30,North,0,0.0,0.0,100,0.00,,FEW050,0.00,VWS V14.01,2013-03-27 12:37:00,
2013-03-27 08:42:00,30.4,30.4,30.30,North,0,0.0,0.0,100,0.00,,FEW050,0.00,VWS V14.01,2013-03-27 12:42:00,
2013-03-27 08:48:00,31.1,31.1,30.30,North,0,0.0,0.0,100,0.00,,FEW050,0.00,VWS V14.01,2013-03-27 12:48:00,
2013-03-27 08:53:00,31.8,31.8,30.30,North,0,0.0,0.0,100,0.00,,SCT200,0.00,VWS V14.01,2013-03-27 12:53:00,
2013-03-27 08:58:00,32.2,32.2,30.30,North,0,0.0,0.0,100,0.00,,SCT200,0.00,VWS V14.01,2013-03-27 12:58:00,
2013-03-27 09:03:00,32.5,32.2,30.30,North,0,0.0,0.0,99,0.00,,SCT200,0.00,VWS V14.01,2013-03-27 13:03:00,
2013-03-27 09:08:00,32.9,31.2,30.30,North,0,0.0,0.0,94,0.00,,SCT200,0.00,VWS V14.01,2013-03-27 13:08:00,
2013-03-27 09:13:00,33.3,30.7,30.30,North,0,0.0,0.0,90,0.00,,SCT200,0.00,VWS V14.01,2013-03-27 13:13:00,
2013-03-27 09:18:00,33.8,30.3,30.30,North,0,0.0,0.0,87,0.00,,SCT200,0.00,VWS V14.01,2013-03-27 13:18:00,
2013-03-27 09:24:00,34.0,30.0,30.30,North,0,0.0,0.0,85,0.00,,SCT200,0.00,VWS V14.01,2013-03-27 13:24:00,
2013-03-27 09:29:00,34.3,30.3,30.30,North,0,0.0,0.0,85,0.00,,SCT200,0.00,VWS V14.01,2013-03-27 13:29:00,
2013-03-27 09:34:00,34.7,30.2,30.30,North,0,0.0,0.0,83,0.00,,SCT200,0.00,VWS V14.01,2013-03-27 13:34:00,
2013-03-27 09:39:00,34.9,30.3,30.30,North,0,0.0,0.0,83,0.00,,FEW200,0.00,VWS V14.01,2013-03-27 13:39:00,
2013-03-27 09:44:00,35.1,30.0,30.30,North,0,0.0,0.0,82,0.00,,FEW200,0.00,VWS V14.01,2013-03-27 13:44:00,
2013-03-27 09:49:00,34.9,28.8,30.30,North,0,0.0,0.0,78,0.00,,FEW200,0.00,VWS V14.01,2013-03-27 13:49:00,
2013-03-27 09:54:00,35.2,29.7,30.33,North,0,0.0,0.0,80,0.00,,FEW200,0.00,VWS V14.01,2013-03-27 13:54:00,
2013-03-27 10:00:00,35.6,30.5,30.33,North,0,0.0,0.0,82,0.00,,FEW200,0.00,VWS V14.01,2013-03-27 14:00:00,
2013-03-27 10:05:00,35.6,29.0,30.33,North,0,0.0,0.0,76,0.00,,FEW200,0.00,VWS V14.01,2013-03-27 14:05:00,
2013-03-27 10:10:00,35.8,29.7,30.33,North,0,0.0,0.0,78,0.00,,FEW200,0.00,VWS V14.01,2013-03-27 14:10:00,
2013-03-27 10:15:00,35.8,29.1,30.33,North,0,0.0,0.0,76,0.00,,FEW200,0.00,VWS V14.01,2013-03-27 14:15:00,
2013-03-27 10:20:00,35.8,28.6,30.33,North,0,0.0,0.0,75,0.00,,FEW200,0.00,VWS V14.01,2013-03-27 14:20:00,
2013-03-27 10:25:00,36.3,29.1,30.33,North,0,0.0,0.0,75,0.00,,FEW200,0.00,VWS V14.01,2013-03-27 14:25:00,
2013-03-27 10:31:00,36.1,28.4,30.33,North,0,0.0,0.0,73,0.00,,FEW200,0.00,VWS V14.01,2013-03-27 14:31:00,
2013-03-27 10:37:00,36.9,30.2,30.33,North,0,0.0,0.0,76,0.00,,SCT250,0.00,VWS V14.01,2013-03-27 14:37:00,
2013-03-27 10:42:00,37.0,29.2,30.33,North,0,0.0,0.0,73,0.00,,SCT250,0.00,VWS V14.01,2013-03-27 14:42:00,
2013-03-27 10:47:00,37.0,29.2,30.33,North,0,0.0,0.0,73,0.00,,SCT250,0.00,VWS V14.01,2013-03-27 14:47:00,
2013-03-27 10:52:00,37.2,29.4,30.33,North,0,0.0,0.0,73,0.00,,SCT250,0.00,VWS V14.01,2013-03-27 14:52:00,
2013-03-27 10:57:00,37.4,29.6,30.33,North,0,0.0,0.0,73,0.00,,SCT250,0.00,VWS V14.01,2013-03-27 14:57:00,
2013-03-27 11:02:00,37.6,29.8,30.33,North,0,0.0,0.0,73,0.00,,SCT250,0.00,VWS V14.01,2013-03-27 15:02:00,
2013-03-27 11:07:00,37.9,30.1,30.33,North,0,0.0,0.0,73,0.00,,SCT250,0.00,VWS V14.01,2013-03-27 15:07:00,
2013-03-27 11:12:00,37.9,28.3,30.33,North,0,0.0,0.0,68,0.00,,SCT250,0.00,VWS V14.01,2013-03-27 15:12:00,
2013-03-27 11:17:00,38.1,28.5,30.33,North,0,0.0,0.0,68,0.00,,SCT250,0.00,VWS V14.01,2013-03-27 15:17:00,
2013-03-27 11:22:00,37.9,28.9,30.33,North,0,0.0,0.0,70,0.00,,SCT250,0.00,VWS V14.01,2013-03-27 15:22:00,
2013-03-27 11:28:00,37.9,28.3,30.33,North,0,0.0,0.0,68,0.00,,SCT250,0.00,VWS V14.01,2013-03-27 15:28:00,
2013-03-27 11:33:00,38.3,28.7,30.33,North,0,0.0,0.0,68,0.00,,SCT250,0.00,VWS V14.01,2013-03-27 15:33:00,
2013-03-27 11:38:00,38.5,29.5,30.33,North,0,0.0,0.0,70,0.00,,BKN300,0.00,VWS V14.01,2013-03-27 15:38:00,
2013-03-27 11:43:00,38.8,29.2,30.33,North,0,0.0,0.0,68,0.00,,BKN300,0.00,VWS V14.01,2013-03-27 15:43:00,
2013-03-27 11:48:00,39.0,29.4,30.33,North,0,0.0,0.0,68,0.00,,BKN300,0.00,VWS V14.01,2013-03-27 15:48:00,
2013-03-27 11:54:00,39.2,28.9,30.33,North,0,0.0,0.0,66,0.00,,BKN300,0.00,VWS V14.01,2013-03-27 15:54:00,
2013-03-27 11:59:00,39.6,29.3,30.33,North,0,0.0,0.0,66,0.00,,BKN300,0.00,VWS V14.01,2013-03-27 15:59:00,
2013-03-27 12:04:00,39.7,29.4,30.33,North,0,0.0,0.0,66,0.00,,BKN300,0.00,VWS V14.01,2013-03-27 16:04:00,
2013-03-27 12:09:00,39.9,29.6,30.33,North,0,0.0,0.0,66,0.00,,BKN300,0.00,VWS V14.01,2013-03-27 16:09:00,
2013-03-27 12:14:00,40.3,30.0,30.33,North,0,0.0,0.0,66,0.00,,BKN300,0.00,VWS V14.01,2013-03-27 16:14:00,
2013-03-27 12:19:00,40.3,30.0,30.33,North,0,0.0,0.0,66,0.00,,BKN300,0.00,VWS V14.01,2013-03-27 16:19:00,
2013-03-27 12:24:00,40.5,29.5,30.30,North,0,0.0,0.0,65,0.00,,BKN300,0.00,VWS V14.01,2013-03-27 16:24:00,
2013-03-27 12:29:00,41.0,30.0,30.30,North,0,0.0,0.0,65,0.00,,BKN300,0.00,VWS V14.01,2013-03-27 16:29:00,
2013-03-27 12:35:00,41.0,30.0,30.30,North,0,0.0,0.0,65,0.00,,BKN300,0.00,VWS V14.01,2013-03-27 16:35:00,
2013-03-27 12:40:00,41.2,28.2,30.30,North,0,0.0,0.0,60,0.00,,BKN300,0.00,VWS V14.01,2013-03-27 16:40:00,
2013-03-27 12:45:00,41.5,28.5,30.30,North,0,0.0,0.0,60,0.00,,BKN300,0.00,VWS V14.01,2013-03-27 16:45:00,
2013-03-27 12:50:00,40.8,27.8,30.30,North,0,0.0,0.0,60,0.00,,BKN300,0.00,VWS V14.01,2013-03-27 16:50:00,
2013-03-27 12:55:00,40.5,26.8,30.30,North,0,0.0,0.0,58,0.00,,BKN300,0.00,VWS V14.01,2013-03-27 16:55:00,
2013-03-27 13:01:00,40.5,27.5,30.30,North,0,0.0,0.0,60,0.00,,BKN300,0.00,VWS V14.01,2013-03-27 17:01:00,
2013-03-27 13:06:00,40.8,27.8,30.30,North,0,0.0,0.0,60,0.00,,BKN300,0.00,VWS V14.01,2013-03-27 17:06:00,
2013-03-27 13:12:00,41.5,27.1,30.33,North,0,0.0,0.0,56,0.00,,BKN300,0.00,VWS V14.01,2013-03-27 17:12:00,
2013-03-27 13:17:00,41.4,27.6,30.33,North,0,0.0,0.0,58,0.00,,BKN300,0.00,VWS V14.01,2013-03-27 17:17:00,
2013-03-27 13:22:00,41.7,28.0,30.33,North,0,0.0,0.0,58,0.00,,BKN300,0.00,VWS V14.01,2013-03-27 17:22:00,
2013-03-27 13:27:00,42.3,28.5,30.33,North,0,0.0,0.0,58,0.00,,BKN300,0.00,VWS V14.01,2013-03-27 17:27:00,
2013-03-27 13:33:00,42.3,28.5,30.33,North,0,0.0,0.0,58,0.00,,BKN300,0.00,VWS V14.01,2013-03-27 17:33:00,
2013-03-27 13:38:00,42.1,27.6,30.33,North,0,0.0,0.0,56,0.00,,BKN220,0.00,VWS V14.01,2013-03-27 17:38:00,
2013-03-27 13:43:00,41.7,26.5,30.33,North,0,0.0,0.0,54,0.00,,BKN220,0.00,VWS V14.01,2013-03-27 17:43:00,
2013-03-27 13:48:00,41.5,27.1,30.33,North,0,0.0,0.0,56,0.00,,BKN220,0.00,VWS V14.01,2013-03-27 17:48:00,
2013-03-27 13:53:00,41.7,27.2,30.33,North,0,0.0,0.0,56,0.00,,BKN220,0.00,VWS V14.01,2013-03-27 17:53:00,
2013-03-27 13:59:00,42.1,26.8,30.33,North,0,0.0,0.0,54,0.00,,BKN220,0.00,VWS V14.01,2013-03-27 17:59:00,
2013-03-27 14:04:00,41.9,25.9,30.33,North,0,0.0,0.0,53,0.00,,BKN220,0.00,VWS V14.01,2013-03-27 18:04:00,
2013-03-27 14:09:00,41.7,26.5,30.30,North,0,0.0,0.0,54,0.00,,BKN220,0.00,VWS V14.01,2013-03-27 18:09:00,
2013-03-27 14:14:00,42.3,27.0,30.30,North,0,0.0,0.0,54,0.00,,BKN220,0.00,VWS V14.01,2013-03-27 18:14:00,
2013-03-27 14:19:00,42.8,27.5,30.30,North,0,0.0,0.0,54,0.00,,BKN220,0.00,VWS V14.01,2013-03-27 18:19:00,
2013-03-27 14:24:00,43.3,27.2,30.30,North,0,0.0,0.0,53,0.00,,BKN220,0.00,VWS V14.01,2013-03-27 18:24:00,
2013-03-27 14:29:00,43.2,27.1,30.30,North,0,0.0,0.0,53,0.00,,BKN220,0.00,VWS V14.01,2013-03-27 18:29:00,
2013-03-27 14:34:00,43.5,27.4,30.30,North,0,0.0,0.0,53,0.00,,BKN055,0.00,VWS V14.01,2013-03-27 18:34:00,
2013-03-27 14:39:00,43.5,28.2,30.30,North,0,0.0,0.0,54,0.00,,BKN055,0.00,VWS V14.01,2013-03-27 18:39:00,
2013-03-27 14:44:00,43.2,27.1,30.30,North,0,0.0,0.0,53,0.00,,BKN055,0.00,VWS V14.01,2013-03-27 18:44:00,
2013-03-27 14:49:00,43.3,27.2,30.30,North,0,0.0,0.0,53,0.00,,BKN055,0.00,VWS V14.01,2013-03-27 18:49:00,
2013-03-27 14:54:00,43.5,28.2,30.30,North,0,0.0,0.0,54,0.00,,BKN055,0.00,VWS V14.01,2013-03-27 18:54:00,
2013-03-27 15:00:00,43.3,27.2,30.30,North,0,0.0,0.0,53,0.00,,BKN055,0.00,VWS V14.01,2013-03-27 19:00:00,
2013-03-27 15:05:00,43.0,27.7,30.30,North,0,0.0,0.0,54,0.00,,BKN055,0.00,VWS V14.01,2013-03-27 19:05:00,
2013-03-27 15:10:00,43.0,27.7,30.30,North,0,0.0,0.0,54,0.00,,BKN055,0.00,VWS V14.01,2013-03-27 19:10:00,
2013-03-27 15:15:00,43.3,28.0,30.30,North,0,0.0,0.0,54,0.00,,BKN055,0.00,VWS V14.01,2013-03-27 19:15:00,
2013-03-27 15:21:00,43.2,27.8,30.30,North,0,0.0,0.0,54,0.00,,BKN055,0.00,VWS V14.01,2013-03-27 19:21:00,
2013-03-27 15:26:00,42.8,27.5,30.30,North,0,0.0,0.0,54,0.00,,BKN055,0.00,VWS V14.01,2013-03-27 19:26:00,
2013-03-27 15:31:00,42.8,27.5,30.30,North,0,0.0,0.0,54,0.00,,BKN055,0.00,VWS V14.01,2013-03-27 19:31:00,
2013-03-27 15:37:00,42.6,27.3,30.30,North,0,0.0,0.0,54,0.00,,BKN055,0.00,VWS V14.01,2013-03-27 19:37:00,
2013-03-27 15:42:00,42.4,27.2,30.30,North,0,0.0,0.0,54,0.00,,BKN055,0.00,VWS V14.01,2013-03-27 19:42:00,
2013-03-27 15:47:00,42.8,27.5,30.30,North,0,0.0,0.0,54,0.00,,BKN055,0.00,VWS V14.01,2013-03-27 19:47:00,
2013-03-27 15:53:00,42.8,27.5,30.30,North,0,0.0,0.0,54,0.00,,BKN055,0.00,VWS V14.01,2013-03-27 19:53:00,
2013-03-27 15:58:00,42.8,27.5,30.30,North,0,0.0,0.0,54,0.00,,BKN055,0.00,VWS V14.01,2013-03-27 19:58:00,
2013-03-27 16:03:00,42.6,28.1,30.30,North,0,0.0,0.0,56,0.00,,BKN055,0.00,VWS V14.01,2013-03-27 20:03:00,
2013-03-27 16:08:00,42.4,27.2,30.27,North,0,0.0,0.0,54,0.00,,BKN055,0.00,VWS V14.01,2013-03-27 20:08:00,
2013-03-27 16:14:00,42.8,27.5,30.27,North,0,0.0,0.0,54,0.00,,BKN055,0.00,VWS V14.01,2013-03-27 20:14:00,
2013-03-27 16:19:00,43.0,28.4,30.27,North,0,0.0,0.0,56,0.00,,BKN055,0.00,VWS V14.01,2013-03-27 20:19:00,
2013-03-27 16:24:00,43.3,28.0,30.27,North,0,0.0,0.0,54,0.00,,BKN055,0.00,VWS V14.01,2013-03-27 20:24:00,
2013-03-27 16:29:00,43.3,28.0,30.27,North,0,0.0,0.0,54,0.00,,BKN055,0.00,VWS V14.01,2013-03-27 20:29:00,
2013-03-27 16:34:00,43.9,29.3,30.27,North,0,0.0,0.0,56,0.00,,BKN250,0.00,VWS V14.01,2013-03-27 20:34:00,
2013-03-27 16:39:00,44.4,29.0,30.27,North,0,0.0,0.0,54,0.00,,BKN250,0.00,VWS V14.01,2013-03-27 20:39:00,
2013-03-27 16:44:00,45.1,28.9,30.27,North,0,0.0,0.0,53,0.00,,BKN250,0.00,VWS V14.01,2013-03-27 20:44:00,
2013-03-27 16:49:00,44.8,28.6,30.27,North,0,0.0,0.0,53,0.00,,BKN250,0.00,VWS V14.01,2013-03-27 20:49:00,
2013-03-27 16:55:00,44.6,29.2,30.27,North,0,0.0,0.0,54,0.00,,BKN250,0.00,VWS V14.01,2013-03-27 20:55:00,
2013-03-27 17:00:00,44.6,28.4,30.27,North,0,0.0,0.0,53,0.00,,BKN250,0.00,VWS V14.01,2013-03-27 21:00:00,
2013-03-27 17:05:00,45.1,29.7,30.27,North,0,0.0,0.0,54,0.00,,BKN250,0.00,VWS V14.01,2013-03-27 21:05:00,
2013-03-27 17:10:00,45.5,30.0,30.27,North,0,0.0,0.0,54,0.00,,BKN250,0.00,VWS V14.01,2013-03-27 21:10:00,
2013-03-27 17:16:00,45.1,28.9,30.27,North,0,0.0,0.0,53,0.00,,BKN250,0.00,VWS V14.01,2013-03-27 21:16:00,
2013-03-27 17:21:00,44.6,27.6,30.27,North,0,0.0,0.0,51,0.00,,BKN250,0.00,VWS V14.01,2013-03-27 21:21:00,
2013-03-27 17:26:00,43.9,27.7,30.27,North,0,0.0,0.0,53,0.00,,BKN250,0.00,VWS V14.01,2013-03-27 21:26:00,
2013-03-27 17:31:00,43.7,27.6,30.27,North,0,0.0,0.0,53,0.00,,BKN250,0.00,VWS V14.01,2013-03-27 21:31:00,
2013-03-27 17:36:00,43.5,27.4,30.27,North,0,0.0,0.0,53,0.00,,BKN250,0.00,VWS V14.01,2013-03-27 21:36:00,
2013-03-27 17:41:00,43.3,27.2,30.27,North,0,0.0,0.0,53,0.00,,BKN250,0.00,VWS V14.01,2013-03-27 21:41:00,
2013-03-27 17:47:00,43.3,27.2,30.27,North,0,0.0,0.0,53,0.00,,BKN250,0.00,VWS V14.01,2013-03-27 21:47:00,
2013-03-27 17:52:00,43.3,27.2,30.27,North,0,0.0,0.0,53,0.00,,BKN250,0.00,VWS V14.01,2013-03-27 21:52:00,
2013-03-27 17:57:00,43.0,26.9,30.27,North,0,0.0,0.0,53,0.00,,BKN250,0.00,VWS V14.01,2013-03-27 21:57:00,
2013-03-27 18:03:00,43.0,27.7,30.27,North,0,0.0,0.0,54,0.00,,BKN250,0.00,VWS V14.01,2013-03-27 22:03:00,
2013-03-27 18:08:00,42.8,27.5,30.27,North,0,0.0,0.0,54,0.00,,BKN250,0.00,VWS V14.01,2013-03-27 22:08:00,
2013-03-27 18:13:00,42.8,27.5,30.27,North,0,0.0,0.0,54,0.00,,BKN250,0.00,VWS V14.01,2013-03-27 22:13:00,
2013-03-27 18:18:00,42.8,28.2,30.27,North,0,0.0,0.0,56,0.00,,BKN250,0.00,VWS V14.01,2013-03-27 22:18:00,
2013-03-27 18:23:00,42.8,27.5,30.27,North,0,0.0,0.0,54,0.00,,BKN250,0.00,VWS V14.01,2013-03-27 22:23:00,
2013-03-27 18:28:00,42.8,27.5,30.27,North,0,0.0,0.0,54,0.00,,BKN250,0.00,VWS V14.01,2013-03-27 22:28:00,
2013-03-27 18:33:00,42.8,27.5,30.27,North,0,0.0,0.0,54,0.00,,BKN250,0.00,VWS V14.01,2013-03-27 22:33:00,
2013-03-27 18:38:00,42.8,28.2,30.27,North,0,0.0,0.0,56,0.00,,BKN250,0.00,VWS V14.01,2013-03-27 22:38:00,
2013-03-27 18:43:00,43.0,28.4,30.27,North,0,0.0,0.0,56,0.00,,BKN250,0.00,VWS V14.01,2013-03-27 22:43:00,
2013-03-27 18:48:00,42.8,27.5,30.27,North,0,0.0,0.0,54,0.00,,BKN250,0.00,VWS V14.01,2013-03-27 22:48:00,
2013-03-27 18:53:00,42.8,28.2,30.27,North,0,0.0,0.0,56,0.00,,BKN250,0.00,VWS V14.01,2013-03-27 22:53:00,
2013-03-27 18:58:00,42.8,28.2,30.27,North,0,0.0,0.0,56,0.00,,BKN250,0.00,VWS V14.01,2013-03-27 22:58:00,
2013-03-27 19:03:00,42.4,27.9,30.27,North,0,0.0,0.0,56,0.00,,BKN250,0.00,VWS V14.01,2013-03-27 23:03:00,
2013-03-27 19:08:00,42.3,27.0,30.27,North,0,0.0,0.0,54,0.00,,BKN250,0.00,VWS V14.01,2013-03-27 23:08:00,
2013-03-27 19:13:00,42.1,27.6,30.27,North,0,0.0,0.0,56,0.00,,BKN250,0.00,VWS V14.01,2013-03-27 23:13:00,
2013-03-27 19:18:00,42.1,27.6,30.27,North,0,0.0,0.0,56,0.00,,BKN250,0.00,VWS V14.01,2013-03-27 23:18:00,
2013-03-27 19:23:00,41.9,28.1,30.27,North,0,0.0,0.0,58,0.00,,BKN250,0.00,VWS V14.01,2013-03-27 23:23:00,
2013-03-27 19:28:00,41.7,28.0,30.27,North,0,0.0,0.0,58,0.00,,BKN250,0.00,VWS V14.01,2013-03-27 23:28:00,
2013-03-27 19:33:00,41.7,28.0,30.27,North,0,0.0,0.0,58,0.00,,BKN250,0.00,VWS V14.01,2013-03-27 23:33:00,
2013-03-27 19:38:00,41.5,27.8,30.27,North,0,0.0,0.0,58,0.00,,BKN250,0.00,VWS V14.01,2013-03-27 23:38:00,
2013-03-27 19:43:00,41.4,27.6,30.27,North,0,0.0,0.0,58,0.00,,BKN250,0.00,VWS V14.01,2013-03-27 23:43:00,
2013-03-27 19:48:00,41.2,27.5,30.27,North,0,0.0,0.0,58,0.00,,BKN250,0.00,VWS V14.01,2013-03-27 23:48:00,
2013-03-27 19:53:00,41.2,28.2,30.27,North,0,0.0,0.0,60,0.00,,BKN250,0.00,VWS V14.01,2013-03-27 23:53:00,
2013-03-27 19:58:00,41.0,27.3,30.27,North,0,0.0,0.0,58,0.00,,BKN250,0.00,VWS V14.01,2013-03-27 23:58:00,
2013-03-27 20:03:00,41.0,27.3,30.27,North,0,0.0,0.0,58,0.00,,BKN250,0.00,VWS V14.01,2013-03-28 00:03:00,
2013-03-27 20:08:00,40.8,27.8,30.27,North,0,0.0,0.0,60,0.00,,BKN250,0.00,VWS V14.01,2013-03-28 00:08:00,
2013-03-27 20:13:00,40.6,27.6,30.27,North,0,0.0,0.0,60,0.00,,SCT060,0.00,VWS V14.01,2013-03-28 00:13:00,
2013-03-27 20:18:00,40.6,27.6,30.27,North,0,0.0,0.0,60,0.00,,SCT060,0.00,VWS V14.01,2013-03-28 00:18:00,
2013-03-27 20:23:00,40.5,27.5,30.27,North,0,0.0,0.0,60,0.00,,SCT060,0.00,VWS V14.01,2013-03-28 00:23:00,
2013-03-27 20:29:00,40.3,27.3,30.27,North,0,0.0,0.0,60,0.00,,SCT060,0.00,VWS V14.01,2013-03-28 00:29:00,
2013-03-27 20:34:00,40.1,27.8,30.27,North,0,0.0,0.0,61,0.00,,SCT060,0.00,VWS V14.01,2013-03-28 00:34:00,
2013-03-27 20:39:00,39.9,28.3,30.27,North,0,0.0,0.0,63,0.00,,SCT060,0.00,VWS V14.01,2013-03-28 00:39:00,
2013-03-27 20:44:00,39.9,28.3,30.27,North,0,0.0,0.0,63,0.00,,SCT060,0.00,VWS V14.01,2013-03-28 00:44:00,
2013-03-27 20:50:00,39.7,28.8,30.27,North,0,0.0,0.0,65,0.00,,SCT060,0.00,VWS V14.01,2013-03-28 00:50:00,
2013-03-27 20:55:00,39.9,29.0,30.27,North,0,0.0,0.0,65,0.00,,SCT060,0.00,VWS V14.01,2013-03-28 00:55:00,
2013-03-27 21:00:00,39.9,29.0,30.27,North,0,0.0,0.0,65,0.00,,SCT060,0.00,VWS V14.01,2013-03-28 01:00:00,
2013-03-27 21:05:00,39.7,28.8,30.27,North,0,0.0,0.0,65,0.00,,SCT060,0.00,VWS V14.01,2013-03-28 01:05:00,
2013-03-27 21:11:00,39.7,28.8,30.27,North,0,0.0,0.0,65,0.00,,SCT060,0.00,VWS V14.01,2013-03-28 01:11:00,
2013-03-27 21:16:00,39.6,28.6,30.27,North,0,0.0,0.0,65,0.00,,SCT060,0.00,VWS V14.01,2013-03-28 01:16:00,
2013-03-27 21:21:00,39.4,28.5,30.27,North,0,0.0,0.0,65,0.00,,SCT060,0.00,VWS V14.01,2013-03-28 01:21:00,
2013-03-27 21:27:00,39.0,28.8,30.27,North,0,0.0,0.0,66,0.00,,SCT060,0.00,VWS V14.01,2013-03-28 01:27:00,
2013-03-27 21:32:00,38.8,28.6,30.27,North,0,0.0,0.0,66,0.00,,SCT060,0.00,VWS V14.01,2013-03-28 01:32:00,
2013-03-27 21:37:00,38.7,28.4,30.27,North,0,0.0,0.0,66,0.00,,SCT060,0.00,VWS V14.01,2013-03-28 01:37:00,
2013-03-27 21:42:00,38.5,28.2,30.27,North,0,0.0,0.0,66,0.00,,SCT060,0.00,VWS V14.01,2013-03-28 01:42:00,
2013-03-27 21:47:00,38.1,27.9,30.27,North,0,0.0,0.0,66,0.00,,SCT060,0.00,VWS V14.01,2013-03-28 01:47:00,
2013-03-27 21:52:00,37.9,27.7,30.27,North,0,0.0,0.0,66,0.00,,SCT060,0.00,VWS V14.01,2013-03-28 01:52:00,
2013-03-27 21:58:00,37.6,28.0,30.27,North,0,0.0,0.0,68,0.00,,SCT060,0.00,VWS V14.01,2013-03-28 01:58:00,
2013-03-27 22:03:00,37.4,27.8,30.27,North,0,0.0,0.0,68,0.00,,SCT060,0.00,VWS V14.01,2013-03-28 02:03:00,
2013-03-27 22:08:00,37.2,27.6,30.27,North,0,0.0,0.0,68,0.00,,SCT060,0.00,VWS V14.01,2013-03-28 02:08:00,
2013-03-27 22:13:00,37.0,27.5,30.27,North,0,0.0,0.0,68,0.00,,SCT060,0.00,VWS V14.01,2013-03-28 02:13:00,
2013-03-27 22:18:00,37.0,27.5,30.27,North,0,0.0,0.0,68,0.00,,SCT060,0.00,VWS V14.01,2013-03-28 02:18:00,
2013-03-27 22:23:00,37.0,27.5,30.30,North,0,0.0,0.0,68,0.00,,SCT060,0.00,VWS V14.01,2013-03-28 02:23:00,
2013-03-27 22:28:00,36.9,27.3,30.30,North,0,0.0,0.0,68,0.00,,SCT060,0.00,VWS V14.01,2013-03-28 02:28:00,
2013-03-27 22:33:00,36.7,27.1,30.30,North,0,0.0,0.0,68,0.00,,SCT060,0.00,VWS V14.01,2013-03-28 02:33:00,
2013-03-27 22:39:00,36.5,27.0,30.30,North,0,0.0,0.0,68,0.00,,FEW060,0.00,VWS V14.01,2013-03-28 02:39:00,
2013-03-27 22:44:00,36.3,26.8,30.30,North,0,0.0,0.0,68,0.00,,FEW060,0.00,VWS V14.01,2013-03-28 02:44:00,
2013-03-27 22:49:00,36.1,27.2,30.30,North,0,0.0,0.0,70,0.00,,FEW060,0.00,VWS V14.01,2013-03-28 02:49:00,
2013-03-27 22:54:00,36.1,27.2,30.30,North,0,0.0,0.0,70,0.00,,FEW060,0.00,VWS V14.01,2013-03-28 02:54:00,
2013-03-27 22:59:00,36.0,27.0,30.30,North,0,0.0,0.0,70,0.00,,FEW060,0.00,VWS V14.01,2013-03-28 02:59:00,
2013-03-27 23:04:00,35.8,26.9,30.30,North,0,0.0,0.0,70,0.00,,FEW060,0.00,VWS V14.01,2013-03-28 03:04:00,
2013-03-27 23:10:00,35.6,26.7,30.30,North,0,0.0,0.0,70,0.00,,FEW060,0.00,VWS V14.01,2013-03-28 03:10:00,
2013-03-27 23:15:00,35.8,26.9,30.30,North,0,0.0,0.0,70,0.00,,FEW060,0.00,VWS V14.01,2013-03-28 03:15:00,
2013-03-27 23:20:00,35.8,26.9,30.30,North,0,0.0,0.0,70,0.00,,FEW060,0.00,VWS V14.01,2013-03-28 03:20:00,
2013-03-27 23:25:00,35.6,26.7,30.30,North,0,0.0,0.0,70,0.00,,FEW060,0.00,VWS V14.01,2013-03-28 03:25:00,
2013-03-27 23:30:00,35.4,27.1,30.30,North,0,0.0,0.0,71,0.00,,FEW060,0.00,VWS V14.01,2013-03-28 03:30:00,
2013-03-27 23:35:00,35.2,26.9,30.30,North,0,0.0,0.0,71,0.00,,FEW060,0.00,VWS V14.01,2013-03-28 03:35:00,
2013-03-27 23:41:00,35.1,26.8,30.30,North,0,0.0,0.0,71,0.00,,FEW060,0.00,VWS V14.01,2013-03-28 03:41:00,
2013-03-27 23:46:00,35.1,27.3,30.30,North,0,0.0,0.0,73,0.00,,FEW060,0.00,VWS V14.01,2013-03-28 03:46:00,
2013-03-27 23:51:00,34.9,27.1,30.30,North,0,0.0,0.0,73,0.00,,FEW060,0.00,VWS V14.01,2013-03-28 03:51:00,
2013-03-27 23:57:00,34.9,27.1,30.30,North,0,0.0,0.0,73,0.00,,FEW060,0.00,VWS V14.01,2013-03-28 03:57:00,